Content
SEND FEEDBACK

Daily
Averages
Monthly
Summary
United States of America

CARRBORO, NORTH CAROLINA


Home > North America > United States > North Carolina
Elevation: 447 feet     Latitude: 35 55N     Longitude: 079 06W

WEATHER
 
SELECT A DAY
Number of Records: 159,879;   Date Range: 7/14/99 - 9/20/14
 
SHARE

PRINT THIS DATA

[ ← Previous Day ]
WEATHER ALMANAC - OCTOBER 25, 2013
[ Next Day → ]
[ °C ]   °F
Weather ElementAverageHighLow
Temperature45.6 °F55 °F (3:56 pm)37.9 °F (7:56 am)
Dewpoint29.7 °F34 °F (2:56 am)25 °F (2:56 pm)
Humidity56.3 %76 % (7:56 am)31 % (3:56 pm)
Barometer30.30 in30.37 in (10:56 pm)30.21 in (1:56 am)
Wind Speed5.4 mph12.7 mph (1:56 pm)
Wind Gust19.6 mph (9:56 am)
Weather ElementAverage
Visibility10 mi
Wind DirectionSW (222.2 °)

Weather ElementTotal
Precipitation---
Heating Degree Days18.6 (Base 65)
Averaged from 23 records on October 25, 2013
WEATHER CONDITIONS BREAKOUT
WIND DIRECTION BREAKOUT
WEATHER BY HOUR - OCTOBER 25, 2013
[ °C ]   °F
Local TimeTemperatureDewpointHumidityBarometerVisibilityWind DirectionWind SpeedGust SpeedPrecipitationEventsConditions
1:56 AM45.0 °F33.1 °F63 %30.21 in10.0 miVariable3.5 mphOvercast
2:56 AM44.1 °F34.0 °F68 %30.22 in10.0 miCalmOvercast
3:56 AM44.1 °F34.0 °F68 %30.23 in10.0 miCalmOvercast
4:56 AM44.1 °F34.0 °F68 %30.24 in10.0 miNNW (340°)3.5 mphOvercast
5:56 AM42.1 °F34.0 °F73 %30.26 in10.0 miCalmMostly Cloudy
6:56 AM39.9 °F30.9 °F70 %30.28 in10.0 miNW (320°)4.6 mphPartly Cloudy
7:56 AM37.9 °F30.9 °F76 %30.30 in10.0 miNW (310°)4.6 mphClear
8:56 AM44.1 °F30.9 °F60 %30.31 in10.0 miNNW (340°)5.8 mphClear
9:56 AM46.9 °F28.9 °F50 %30.33 in10.0 miNorth (350°)11.5 mph19.6 mphClear
10:56 AM48.9 °F28.0 °F44 %30.33 in10.0 miNNW (330°)9.2 mph18.4 mphClear
11:56 AM52.0 °F28.9 °F41 %30.33 in10.0 miNNW (340°)11.5 mph18.4 mphClear
12:56 PM53.1 °F26.1 °F35 %30.32 in10.0 miNorth (350°)9.2 mphClear
1:56 PM54.0 °F26.1 °F34 %30.31 in10.0 miWNW (290°)12.7 mphClear
2:56 PM54.0 °F25.0 °F33 %30.29 in10.0 miNNE (20°)9.2 mph19.6 mphPartly Cloudy
3:56 PM55.0 °F25.0 °F31 %30.29 in10.0 miVariable5.8 mphClear
4:56 PM54.0 °F26.1 °F34 %30.30 in10.0 miNW (310°)3.5 mphClear
5:56 PM50.0 °F27.0 °F41 %30.31 in10.0 miNW (320°)3.5 mphClear
6:56 PM43.0 °F33.1 °F68 %30.32 in10.0 miCalmClear
7:56 PM42.1 °F30.9 °F65 %30.34 in10.0 miNW (310°)3.5 mphClear
8:56 PM37.9 °F30.9 °F76 %30.35 in10.0 miWNW (300°)4.6 mphClear
9:56 PM39.9 °F28.9 °F65 %30.36 in10.0 miWNW (300°)6.9 mphClear
10:56 PM39.0 °F28.0 °F65 %30.37 in10.0 miWNW (300°)5.8 mphClear
11:56 PM37.9 °F28.0 °F68 %30.37 in10.0 miWest (280°)4.6 mphClear
Hourly data recorded from KIGX, located miles away from Carrboro, North Carolina







STORIES FROM OUR PARTNERS